Regional Weather Roundup
Issued by NWS

Home | Current Version | Previous Version | Text Only | Print | Product List | Glossary Off
Versions: 1 2 3 4 5 6 7 8 9 10 11 12 13 14 15 16 17 18 19 20 21 22 23 24 25 26 27 28 29 30 31 32 33 34 35 36 37 38 39 40 41 42 43 44 45 46 47 48 49 50

000
ASUS43 KDTX 302001
RWRMI
MICHIGAN HOURLY REGIONAL WEATHER ROUNDUP
NATIONAL WEATHER SERVICE DETROIT/PONTIAC MI
400 PM EDT SAT MAY 30 2015

NOTE: "FAIR" INDICATES FEW OR NO CLOUDS BELOW 12,000 FEET WITH NO
SIGNIFICANT WEATHER AND/OR OBSTRUCTION TO VISIBILITY.

MIZ047>049-052>055-059>063-066>070-074>076-081>083-302100-
SOUTHEAST LOWER MICHIGAN

CITY           SKY/WX    TMP DP  RH WIND       PRES   REMARKS
ADRIAN         PTSUNNY   79  68  69 W7        29.95F
ALMA           HVY RAIN  58  57  96 N17G24    30.04R
ANN ARBOR      PTSUNNY   77  66  68 N3        29.94F
BAD AXE        LGT RAIN  53  51  94 N16G25    30.04S
CARO           LGT RAIN  59  57  93 N10G17    30.02R
DETROIT CITY   PTSUNNY   75  69  81 SE7       29.96F
DETROIT        CLOUDY    75  68  78 E5        29.96F
FLINT          LGT RAIN  72  67  84 NE8       29.97S
GROSSE ILE     LGT RAIN  70  66  88 E5        29.96S
HILLSDALE      HVY RAIN  73  71  94 S12       29.98S
HOWELL         LGT RAIN  75  66  73 W3        29.98S

CITY           SKY/WX    TMP DP  RH WIND       PRES   REMARKS
JACKSON        LGT RAIN  72  69  90 N6        29.96F
LAMBERTVILLE   LGT RAIN  72  68  88 CALM      29.98R
LANSING        CLOUDY    69  66  90 NW7       29.99R
LAPEER         LGT RAIN  63  61  93 E8        29.99R
MONROE         HVY RAIN  72  68  88 W10G25    29.96R
MT. CLEMENS    PTSUNNY   65  64  94 E15       29.96S
PONTIAC        PTSUNNY   76  65  68 NW3       29.96F
PORT HOPE        N/A     53  51  93 N9        30.03S
PORT HURON     CLOUDY    57  54  88 NE13      30.02S
TRI CITIES     LGT RAIN  61  58  90 N16       30.03R FOG
MIDLAND        RAIN      57  55  93 N12       30.05R
TROY           PTSUNNY   78  68  72 CALM      29.97F
SAGINAW HB     RAIN      61  61 100 N21G26    30.01R
$$
MIZ043>046-050>051-056>058-064>065-071>073-077>080-302100-
SOUTHWEST LOWER MICHIGAN

CITY           SKY/WX    TMP DP  RH WIND       PRES   REMARKS
BATTLE CREEK   CLOUDY    72  66  81 NW12      29.98F
BENTON HARBOR  CLOUDY    50  49  96 VRB6      30.01R
BIG RAPIDS     RAIN      51  48  89 N14       30.09R
COLDWATER      PTSUNNY   74  67  77 N9        29.96S
FREMONT        LGT RAIN  51  49  93 N15G21    30.08R
HOLLAND        LGT RAIN  59  57  93 NW6       30.02R FOG
GRAND RAPIDS   LGT RAIN  64  62  93 N15       30.01R FOG
IONIA          RAIN      63  61  95 N15G22    30.00R
KALAMAZOO      CLOUDY    73  65  75 N13       29.98F
LUDINGTON      LGT RAIN  51  48  91 N12       30.13S
MARSHALL       CLOUDY    74  68  80 NW7       29.96F
MOUNT PLEASANT RAIN      56  54  95 N12       30.06R
MUSKEGON       LGT RAIN  55  51  86 N18G25    30.07R
SOUTH HAVEN    CLOUDY    53  51  95 N5        30.02R FOG
$$
MIZ016>042-302100-
NORTHERN LOWER MICHIGAN

CITY           SKY/WX    TMP DP  RH WIND       PRES   REMARKS
ALPENA         CLOUDY    56  48  74 N14       30.09S
BEAVER ISLAND  CLOUDY    53  39  60 N9G16     30.18R
BELLAIRE       LGT RAIN  51  44  76 N7        30.15R
CADILLAC       LGT RAIN  50  47  90 N9G16     30.12R
CHARLEVOIX     CLOUDY    49  42  77 N12       30.19R
FRANKFORT      LGT RAIN  49  42  74 N8        30.17R
GAYLORD        CLOUDY    54  45  71 VRB6      30.12R
GRAYLING       LGT RAIN  54  48  80 N13G21    30.12R
HARBOR SPRINGS CLOUDY    54  41  61 NW8       30.15R
HOUGHTON LAKE  LGT RAIN  51  49  92 N8        30.11R
MANISTEE       CLOUDY    52  45  76 N10G17    30.15S
OSCODA         LGT RAIN  55  52  92 N16G23    30.05R
PELLSTON       CLOUDY    56  38  50 N14G23    30.14R
ROGERS CITY    CLOUDY    55  42  63 NW15G21   30.11S
TRAVERSE CITY  LGT RAIN  50  46  86 NW10      30.15R
$$
MIZ007>008-015-302100-
EASTERN UPPER MICHIGAN

CITY           SKY/WX    TMP DP  RH WIND       PRES   REMARKS
KINROSS        CLOUDY    50  37  62 NW24G32   30.12S
MACKINAC ISLAN CLOUDY    52  37  56 N14G23    30.13S
NEWBERRY       PTSUNNY   46  37  73 NW14G24   30.19R
S. S. MARIE    CLOUDY    48  37  65 NW15G26   30.14R
$$
MIZ004>006-011>014-085-302100-
CENTRAL UPPER MICHIGAN

CITY           SKY/WX    TMP DP  RH WIND       PRES   REMARKS
MANISTIQUE     CLOUDY    47  36  65 N22G30    30.20R
ESCANABA       CLOUDY    48  32  53 N12G18    30.23R
MENOMINEE      CLOUDY    54  39  58 NE15      30.21R
SAWYER-GWINN   SUNNY     45  28  53 NE22      30.25S
$$
MIZ001>003-009>011-084-302100-
WESTERN UPPER MICHIGAN

CITY           SKY/WX    TMP DP  RH WIND       PRES   REMARKS
IRON MOUNTAIN  PTSUNNY   56  38  50 N16G23    30.21S
HOUGHTON       SUNNY     47  31  53 N5        30.30R
COPPER HARBOR    N/A     43  34  70 N12       30.30S
IRONWOOD       SUNNY     46  27  46 NE10G16   30.28R
$$

ABBREVIATIONS USED IN REMARKS
   TC - TEMPERATURE IN CELSIUS
  WCI - WIND CHILL INDEX
   HX - HEAT INDEX
  VSB - VISIBILITY




USA.gov is the U.S. government's official web portal to all federal, state and local government web resources and services.